Location: Melbourne
(37.8170°S, 144.9670°E)
Time: 08:36:58
(UTC+10:00)

ISS - Visible Passes

Search period start: 02 July 2016 00:00
Search period end: 12 July 2016 00:00
Orbit: 402 x 404 km, 51.6° (Epoch: 02 July)

Date Brightness Start Highest point End Pass type
(mag) Time Alt. Az. Time Alt. Az. Time Alt. Az.
02 Jul -2.6 18:21:42 10° NNW 18:24:48 39° NE 18:25:59 28° E visible
02 Jul 0.3 19:58:35 10° W 19:58:38 10° W 19:58:38 10° W visible
03 Jul -2.2 19:05:17 10° WNW 19:08:16 39° SW 19:08:16 39° SW visible
04 Jul -3.3 18:12:17 10° NW 18:15:36 78° SW 18:17:49 19° SE visible
05 Jul -1.3 18:56:51 10° W 18:59:27 21° SSW 18:59:56 20° SSW visible
06 Jul -2.0 18:03:25 10° W 18:06:28 33° SSW 18:09:21 11° SSE visible
07 Jul -0.8 18:48:53 10° SW 18:50:34 13° SSW 18:51:20 12° S visible
08 Jul -1.1 17:55:02 10° WSW 17:57:27 19° SSW 17:59:54 10° SSE visible
10 Jul -0.7 17:47:07 10° SW 17:48:31 12° SSW 17:49:56 10° S visible
